Cut Bank, MT

2:46 AM MST on February 11, 2016 (GMT -0700)
Cut Bank Municipal

Weather History for KCTB - December, 2013

Change the Weather History Date:

Tuesday, December 17, 2013

  Actual Average Record
Temperature  
Mean Temperature 37 °F 22 °F  
Max Temperature 53 °F 32 °F 57 °F (1913)
Min Temperature 21 °F 11 °F -32 °F (1922)
Degree Days  
Heating Degree Days 28 43  
Month to date heating degree days 858 715  
Since 1 July heating degree days 2947 2978  
Cooling Degree Days 0 0  
Month to date cooling degree days 0 0  
Year to date cooling degree days 226 162  
Moisture  
Dew Point 20 °F    
Average Humidity 56    
Maximum Humidity 88    
Minimum Humidity 24    
Precipitation  
Precipitation 0.00 in 0.01 in 0.19 in (1998)
Month to date precipitation 0.02 0.12  
Year to date precipitation 14.49 10.80  
Snow  
Snow 0.00 in - - ()
Snow Depth 0.00 in    
Sea Level Pressure  
Sea Level Pressure 29.87 in    
Wind  
Wind Speed 27 mph (WSW)    
Max Wind Speed 45 mph    
Max Gust Speed 56 mph    
Visibility 10 miles    
Events      
T = Trace of Precipitation, MM = Missing Value Source: NWS Daily Summary

Daily Weather History Graph

Daily Weather History Graph

Search for Another Location

Airport or City:

Trip Planner

Search our weather history database for the weather conditions in past years. The results will help you decide how hot, cold, wet, or windy it might be!

Date:

Astronomy

Dec. 17, 2013 Rise Set
Actual Time 8:16 AM MST 4:34 PM MST
Civil Twilight 7:39 AM MST 5:11 PM MST
Nautical Twilight 6:59 AM MST 5:51 PM MST
Astronomical Twilight 6:21 AM MST 6:30 PM MST
Moon 5:23 PM MST (12/17) 8:11 AM MST (12/17)
Length of Visible Light 9h 31m
Length of Day
8h 17m
Full, 100% of the Moon is Illuminated
Dec 17
Full
Dec 25
Last Quarter
Jan 1
New
Jan 7
First Quarter
Jan 15
Full

Hourly Weather History & Observations

Time (MST) Temp. Windchill Dew Point Humidity Pressure Visibility Wind Dir Wind Speed Gust Speed Precip Events Conditions
12:56 AM 21.9 °F 12.5 °F 18.0 °F 85% 30.21 in 10.0 mi SSE 8.1 mph - N/A   Clear
1:56 AM 23.0 °F 14.7 °F 19.0 °F 85% 30.18 in 10.0 mi SSE 6.9 mph - N/A   Clear
2:56 AM 39.0 °F 29.9 °F 24.1 °F 55% 30.11 in 10.0 mi WSW 17.3 mph - N/A   Clear
3:56 AM 41.0 °F 29.8 °F 23.0 °F 49% 30.07 in 10.0 mi WSW 29.9 mph 35.7 mph N/A   Clear
4:56 AM 39.9 °F 30.8 °F 21.9 °F 49% 30.06 in 10.0 mi WSW 18.4 mph 24.2 mph N/A   Clear
5:56 AM 39.0 °F 30.3 °F 21.0 °F 49% 30.04 in 10.0 mi WSW 16.1 mph - N/A   Clear
6:56 AM 39.9 °F 30.5 °F 21.0 °F 47% 30.00 in 10.0 mi WSW 19.6 mph - N/A   Clear
7:56 AM 41.0 °F 32.5 °F 19.9 °F 43% 29.96 in 10.0 mi WSW 17.3 mph - N/A   Clear
8:56 AM 44.1 °F 34.4 °F 21.0 °F 40% 29.94 in 10.0 mi WSW 27.6 mph 35.7 mph N/A   Clear
9:56 AM 46.0 °F 38.3 °F 21.0 °F 37% 29.93 in 10.0 mi WSW 20.7 mph 31.1 mph N/A   Clear
10:56 AM 48.9 °F - 19.9 °F 32% 29.88 in 10.0 mi WSW 27.6 mph 38.0 mph N/A   Clear
11:56 AM 51.1 °F - 19.0 °F 28% 29.84 in 10.0 mi WSW 31.1 mph 40.3 mph N/A   Clear
12:56 PM 53.1 °F - 18.0 °F 25% 29.81 in 10.0 mi WSW 26.5 mph 34.5 mph N/A   Clear
1:56 PM 52.0 °F - 17.1 °F 25% 29.78 in 10.0 mi WSW 34.5 mph 47.2 mph N/A   Clear
2:56 PM 51.1 °F - 18.0 °F 27% 29.74 in 10.0 mi WSW 38.0 mph 48.3 mph N/A   Clear
3:56 PM 46.9 °F - 19.0 °F 33% 29.73 in 10.0 mi WSW 40.3 mph 51.8 mph N/A   Clear
4:56 PM 46.0 °F 35.3 °F 19.0 °F 34% 29.73 in 10.0 mi WSW 40.3 mph 49.5 mph N/A   Clear
5:56 PM 45.0 °F 35.6 °F 19.9 °F 37% 29.77 in 10.0 mi West 27.6 mph 36.8 mph N/A   Clear
6:56 PM 45.0 °F 34.1 °F 19.9 °F 37% 29.70 in 10.0 mi WSW 38.0 mph 52.9 mph N/A   Clear
7:56 PM 45.0 °F 33.6 °F 19.9 °F 37% 29.70 in 10.0 mi WSW 42.6 mph 56.4 mph N/A   Clear
8:56 PM 45.0 °F 35.1 °F 19.0 °F 36% 29.69 in 10.0 mi WSW 31.1 mph 44.9 mph N/A   Clear
9:56 PM 43.0 °F 31.8 °F 19.9 °F 40% 29.70 in 10.0 mi WSW 34.5 mph 43.7 mph N/A   Clear
10:56 PM 43.0 °F 33.1 °F 19.9 °F 40% 29.68 in 10.0 mi WSW 26.5 mph 38.0 mph N/A   Clear
11:56 PM 43.0 °F 32.0 °F 19.9 °F 40% 29.66 in 10.0 mi West 33.4 mph 42.6 mph N/A   Clear